TimeCST,TemperatureF,Dew PointF,Humidity,Sea Level PressureIn,VisibilityMPH,Wind Direction,Wind SpeedMPH,Gust SpeedMPH,PrecipitationIn,Events,Conditions,WindDirDegrees,DateUTC
12:30 AM,46.4,44.6,93,29.87,4.0,East,5.8,-,0.01,Rain,Light Rain,90,2012-12-28 06:30:00
12:53 AM,46.9,44.1,90,29.87,6.0,Calm,Calm,-,0.02,,Overcast,0,2012-12-28 06:53:00
1:53 AM,48.0,44.1,86,29.85,4.0,NE,4.6,-,N/A,,Overcast,50,2012-12-28 07:53:00
2:53 AM,48.9,46.0,90,29.83,4.0,ENE,4.6,-,0.01,Rain,Light Rain,60,2012-12-28 08:53:00
3:09 AM,48.2,46.4,93,29.84,4.0,NE,4.6,-,0.00,,Overcast,40,2012-12-28 09:09:00
3:41 AM,50.0,46.4,87,29.83,2.5,ENE,4.6,-,0.00,,Overcast,60,2012-12-28 09:41:00
3:53 AM,50.0,46.0,86,29.82,2.5,ENE,4.6,-,0.00,,Overcast,70,2012-12-28 09:53:00
4:53 AM,50.0,48.0,93,29.81,2.0,NNE,3.5,-,N/A,,Overcast,20,2012-12-28 10:53:00
5:20 AM,50.0,48.2,94,29.80,1.8,ENE,4.6,-,N/A,,Overcast,60,2012-12-28 11:20:00
5:53 AM,50.0,46.9,89,29.81,1.2,NNW,3.5,-,N/A,,Overcast,330,2012-12-28 11:53:00
6:27 AM,50.0,46.4,87,29.79,0.8,Variable,3.5,-,0.00,,Overcast,0,2012-12-28 12:27:00
6:53 AM,50.0,48.0,93,29.80,0.5,Calm,Calm,-,0.00,Fog,Fog,0,2012-12-28 12:53:00
7:21 AM,50.0,46.4,87,29.83,1.0,NW,8.1,-,0.01,Rain,Light Rain,310,2012-12-28 13:21:00
7:29 AM,50.0,46.4,87,29.83,0.8,NW,4.6,-,0.01,,Mist,320,2012-12-28 13:29:00
7:53 AM,50.0,46.9,89,29.82,0.5,NNW,4.6,-,0.01,Fog,Fog,340,2012-12-28 13:53:00
8:05 AM,48.2,46.4,93,29.83,0.2,NW,8.1,-,N/A,Fog,Fog,320,2012-12-28 14:05:00
8:17 AM,48.2,46.4,93,29.84,0.5,NW,9.2,-,N/A,Fog,Fog,320,2012-12-28 14:17:00
8:53 AM,48.0,45.0,89,29.87,1.0,NW,10.4,-,0.00,Rain,Light Rain,320,2012-12-28 14:53:00
9:16 AM,46.4,44.6,93,29.88,2.0,NW,9.2,-,0.00,,Overcast,320,2012-12-28 15:16:00
9:35 AM,46.4,42.8,87,29.88,5.0,NNW,8.1,-,0.00,,Overcast,330,2012-12-28 15:35:00
9:53 AM,46.9,44.1,90,29.89,4.0,NNW,5.8,-,0.00,,Overcast,330,2012-12-28 15:53:00
10:53 AM,48.0,44.1,86,29.88,9.0,NNW,5.8,-,N/A,,Overcast,330,2012-12-28 16:53:00
11:53 AM,48.0,44.1,86,29.86,7.0,NNW,10.4,18.4,N/A,,Overcast,330,2012-12-28 17:53:00
12:30 PM,48.2,42.8,82,29.84,9.0,NW,12.7,-,N/A,,Overcast,320,2012-12-28 18:30:00
12:53 PM,48.9,44.1,83,29.84,9.0,NW,10.4,-,N/A,,Overcast,310,2012-12-28 18:53:00
1:53 PM,48.9,43.0,80,29.85,10.0,WNW,9.2,-,N/A,,Overcast,290,2012-12-28 19:53:00
2:40 PM,48.2,42.8,82,29.89,10.0,WNW,9.2,19.6,N/A,,Overcast,300,2012-12-28 20:40:00
2:53 PM,48.0,42.1,80,29.90,10.0,WNW,13.8,18.4,N/A,,Overcast,300,2012-12-28 20:53:00
3:53 PM,46.0,39.9,79,29.94,10.0,NNW,16.1,20.7,N/A,,Overcast,330,2012-12-28 21:53:00
4:53 PM,45.0,39.0,80,29.96,10.0,NW,10.4,-,N/A,,Overcast,310,2012-12-28 22:53:00
5:53 PM,45.0,37.0,74,29.99,10.0,NW,10.4,18.4,N/A,,Overcast,320,2012-12-28 23:53:00
6:53 PM,44.1,36.0,73,30.04,10.0,NW,10.4,16.1,N/A,,Overcast,320,2012-12-29 00:53:00
7:53 PM,44.1,35.1,71,30.06,10.0,NNW,9.2,-,N/A,,Overcast,340,2012-12-29 01:53:00
8:53 PM,43.0,34.0,71,30.10,10.0,NW,9.2,-,N/A,,Overcast,320,2012-12-29 02:53:00
9:53 PM,43.0,33.1,68,30.13,10.0,NW,8.1,-,N/A,,Overcast,310,2012-12-29 03:53:00
10:53 PM,41.0,30.9,67,30.15,10.0,NW,8.1,19.6,N/A,,Overcast,320,2012-12-29 04:53:00
11:53 PM,41.0,30.0,65,30.17,10.0,NW,8.1,17.3,N/A,,Overcast,320,2012-12-29 05:53:00